Weather History for KOPM - November, 2012

Change the Weather History Date:

Wednesday, November 7, 2012

  Actual Average Record
Temperature  
Mean Temperature 78 °F -  
Max Temperature 80 °F - - ()
Min Temperature 75 °F - - ()
Cooling Degree Days 12    
Growing Degree Days 28 (Base 50)    
Moisture  
Dew Point 59 °F    
Average Humidity 55    
Maximum Humidity 65    
Minimum Humidity 47    
Precipitation  
Precipitation 0.00 in - - ()
Sea Level Pressure  
Sea Level Pressure 30.11 in    
Wind  
Wind Speed 7 mph (ESE)    
Max Wind Speed 17 mph    
Max Gust Speed -    
Visibility 10 miles    
Events      
T = Trace of Precipitation, MM = Missing Value Source: NWS Daily Summary

Daily Weather History Graph

Daily Weather History Graph

Search for Another Location

Airport or City:

Trip Planner

Search our weather history database for the weather conditions in past years. The results will help you decide how hot, cold, wet, or windy it might be!

Date:

Astronomy

Nov. 07, 2012 Rise Set
Actual Time 6:41 AM CST 5:40 PM CST
Civil Twilight 6:17 AM CST 6:04 PM CST
Nautical Twilight 5:49 AM CST 6:32 PM CST
Astronomical Twilight 5:22 AM CST 7:00 PM CST
Moon 12:14 AM CST (11/7) 1:16 PM CST (11/7)
Length of Visible Light 11h 47m
Length of Day
10h 58m
Last Quarter, 43% of the Moon is Illuminated
Nov 7
Last Quarter
Nov 13
New
Nov 20
First Quarter
Nov 28
Full
Dec 6
Last Quarter

Hourly Weather History & Observations

Time (CST) Temp. Heat Index Dew Point Humidity Pressure Visibility Wind Dir Wind Speed Gust Speed Precip Events Conditions
12:15 AM 75.2 °F - 55.4 °F 50% 30.11 in 10.0 mi ENE 4.6 mph - N/A   Clear
12:35 AM 75.2 °F - 55.4 °F 50% 30.11 in 10.0 mi East 6.9 mph - N/A   Clear
12:55 AM 75.2 °F - 55.4 °F 50% 30.11 in 10.0 mi ENE 6.9 mph - N/A   Clear
1:15 AM 75.2 °F - 55.4 °F 50% 30.11 in 10.0 mi ENE 6.9 mph - N/A   Clear
1:35 AM 75.2 °F - 55.4 °F 50% 30.11 in 10.0 mi ENE 5.8 mph - N/A   Clear
1:55 AM 75.2 °F - 55.4 °F 50% 30.11 in 10.0 mi East 4.6 mph - N/A   Clear
2:15 AM 75.2 °F - 57.2 °F 53% 30.11 in 10.0 mi East 4.6 mph - N/A   Clear
2:35 AM 75.2 °F - 57.2 °F 53% 30.10 in 10.0 mi East 5.8 mph - N/A   Clear
2:55 AM 75.2 °F - 57.2 °F 53% 30.10 in 10.0 mi East 4.6 mph - N/A   Clear
3:15 AM 75.2 °F - 57.2 °F 53% 30.10 in 10.0 mi East 4.6 mph - N/A   Clear
3:35 AM 75.2 °F - 57.2 °F 53% 30.10 in 10.0 mi East 4.6 mph - N/A   Clear
3:55 AM 75.2 °F - 57.2 °F 53% 30.10 in 10.0 mi Variable 4.6 mph - N/A   Clear
4:15 AM 75.2 °F - 57.2 °F 53% 30.10 in 10.0 mi SE 5.8 mph - N/A   Unknown
4:35 AM 75.2 °F - 57.2 °F 53% 30.10 in 10.0 mi SE 5.8 mph - N/A   Unknown
4:55 AM 75.2 °F - 59.0 °F 57% 30.10 in 10.0 mi SE 5.8 mph - N/A   Clear
5:15 AM 75.2 °F - 57.2 °F 53% 30.10 in 10.0 mi SSE 5.8 mph - N/A   Unknown
5:35 AM 75.2 °F - 57.2 °F 53% 30.11 in 10.0 mi SSE 5.8 mph - N/A   Clear
5:55 AM 75.2 °F - 57.2 °F 53% 30.11 in 10.0 mi South 4.6 mph - N/A   Clear
6:15 AM 75.2 °F - 57.2 °F 53% 30.11 in 10.0 mi SSE 6.9 mph - N/A   Unknown
6:35 AM 75.2 °F - 57.2 °F 53% 30.12 in 10.0 mi South 5.8 mph - N/A   Unknown
6:55 AM 75.2 °F - 57.2 °F 53% 30.12 in 10.0 mi South 5.8 mph - N/A   Clear
7:15 AM 77.0 °F - 57.2 °F 50% 30.13 in 10.0 mi South 5.8 mph - N/A   Clear
7:35 AM 77.0 °F - 57.2 °F 50% 30.14 in 10.0 mi SSW 5.8 mph - N/A   Clear
7:55 AM 77.0 °F - 59.0 °F 54% 30.15 in 10.0 mi SSW 6.9 mph - N/A   Clear
8:15 AM 77.0 °F - 59.0 °F 54% 30.15 in 10.0 mi SSW 5.8 mph - N/A   Clear
8:35 AM 77.0 °F - 59.0 °F 54% 30.16 in 10.0 mi SSW 5.8 mph - N/A   Clear
8:55 AM 77.0 °F - 57.2 °F 50% 30.17 in 10.0 mi SW 5.8 mph - N/A   Clear
9:15 AM 77.0 °F - 57.2 °F 50% 30.17 in 10.0 mi Variable 5.8 mph - N/A   Clear
9:35 AM 77.0 °F - 59.0 °F 54% 30.17 in 10.0 mi SSW 4.6 mph - N/A   Clear
9:55 AM 77.0 °F - 59.0 °F 54% 30.18 in 10.0 mi SW 6.9 mph - N/A   Clear
10:15 AM 78.8 °F - 66.2 °F 65% 30.18 in 10.0 mi WNW 6.9 mph - N/A   Clear
10:35 AM 78.8 °F - 66.2 °F 65% 30.17 in 10.0 mi WNW 5.8 mph - N/A   Clear
10:55 AM 80.6 °F 82.7 °F 66.2 °F 61% 30.17 in 10.0 mi WNW 4.6 mph - N/A   Clear
11:15 AM 80.6 °F 82.7 °F 66.2 °F 61% 30.17 in 10.0 mi WNW 3.5 mph - N/A   Clear
11:35 AM 80.6 °F 82.7 °F 66.2 °F 61% 30.16 in 10.0 mi Calm Calm - N/A   Clear
11:55 AM 80.6 °F 82.3 °F 64.4 °F 58% 30.15 in 10.0 mi Calm Calm - N/A   Clear
12:15 PM 80.6 °F 82.3 °F 64.4 °F 58% 30.14 in 10.0 mi Calm Calm - N/A   Clear
12:35 PM 80.6 °F 82.3 °F 64.4 °F 58% 30.13 in 10.0 mi Calm Calm - N/A   Clear
12:55 PM 78.8 °F - 64.4 °F 61% 30.12 in 10.0 mi Calm Calm - N/A   Clear
1:15 PM 77.0 °F - 64.4 °F 65% 30.10 in 10.0 mi Calm Calm - N/A   Clear
1:35 PM 77.0 °F - 64.4 °F 65% 30.10 in 10.0 mi Calm Calm - N/A   Clear
1:55 PM 77.0 °F - 64.4 °F 65% 30.09 in 10.0 mi Calm Calm - N/A   Clear
2:15 PM 77.0 °F - 64.4 °F 65% 30.09 in 10.0 mi NE 5.8 mph - N/A   Clear
2:35 PM 77.0 °F - 64.4 °F 65% 30.09 in 10.0 mi NE 5.8 mph - N/A   Clear
2:55 PM 77.0 °F - 64.4 °F 65% 30.08 in 10.0 mi East 4.6 mph - N/A   Clear
3:15 PM 77.0 °F - 64.4 °F 65% 30.08 in 10.0 mi ENE 4.6 mph - N/A   Clear
3:35 PM 77.0 °F - 62.6 °F 61% 30.08 in 10.0 mi East 5.8 mph - N/A   Clear
3:55 PM 77.0 °F - 60.8 °F 57% 30.08 in 10.0 mi ESE 8.1 mph - N/A   Clear
4:15 PM 77.0 °F - 59.0 °F 54% 30.08 in 10.0 mi ESE 6.9 mph - N/A   Clear
4:35 PM 77.0 °F - 59.0 °F 54% 30.08 in 10.0 mi ESE 8.1 mph - N/A   Clear
4:55 PM 77.0 °F - 59.0 °F 54% 30.08 in 10.0 mi SE 8.1 mph - N/A   Clear
5:15 PM 77.0 °F - 57.2 °F 50% 30.08 in 10.0 mi ESE 9.2 mph - N/A   Clear
5:35 PM 77.0 °F - 57.2 °F 50% 30.08 in 10.0 mi ESE 8.1 mph - N/A   Clear
5:55 PM 77.0 °F - 57.2 °F 50% 30.08 in 10.0 mi ESE 10.4 mph - N/A   Clear
6:15 PM 77.0 °F - 57.2 °F 50% 30.08 in 10.0 mi East 11.5 mph - N/A   Clear
6:35 PM 77.0 °F - 57.2 °F 50% 30.09 in 10.0 mi ESE 12.7 mph - N/A   Clear
6:55 PM 77.0 °F - 55.4 °F 47% 30.09 in 10.0 mi East 12.7 mph - N/A   Clear
7:15 PM 77.0 °F - 57.2 °F 50% 30.09 in 10.0 mi East 13.8 mph - N/A   Clear
7:35 PM 77.0 °F - 57.2 °F 50% 30.10 in 10.0 mi ESE 13.8 mph - N/A   Clear
7:55 PM 77.0 °F - 57.2 °F 50% 30.10 in 10.0 mi ESE 13.8 mph - N/A   Clear
8:15 PM 77.0 °F - 57.2 °F 50% 30.10 in 10.0 mi ESE 15.0 mph - N/A   Clear
8:35 PM 77.0 °F - 57.2 °F 50% 30.11 in 10.0 mi ESE 13.8 mph - N/A   Clear
8:55 PM 77.0 °F - 57.2 °F 50% 30.11 in 10.0 mi ESE 16.1 mph - N/A   Clear
9:15 PM 77.0 °F - 57.2 °F 50% 30.11 in 10.0 mi ESE 16.1 mph - N/A   Clear
9:35 PM 77.0 °F - 57.2 °F 50% 30.12 in 10.0 mi ESE 17.3 mph - N/A   Clear
9:55 PM 77.0 °F - 59.0 °F 54% 30.12 in 10.0 mi ESE 16.1 mph - N/A   Clear
10:15 PM 77.0 °F - 59.0 °F 54% 30.12 in 10.0 mi SE 17.3 mph - N/A   Clear
10:35 PM 77.0 °F - 59.0 °F 54% 30.12 in 10.0 mi SE 16.1 mph - N/A   Clear
10:55 PM 77.0 °F - 59.0 °F 54% 30.12 in 10.0 mi SE 16.1 mph - N/A   Clear
11:15 PM 77.0 °F - 59.0 °F 54% 30.11 in 10.0 mi ESE 17.3 mph - N/A   Clear
11:35 PM 77.0 °F - 60.8 °F 57% 30.11 in 10.0 mi SE 16.1 mph - N/A   Clear
11:55 PM 77.0 °F - 60.8 °F 57% 30.10 in 10.0 mi SE 16.1 mph - N/A   Clear